Location: 5810 Zion Rd, Cleves, OH 45002, USA
(39.1922°N, 84.7113°W)
Time: 11:40:52
(UTC-05:00)

Tiros 1 despin weight - Visible Passes

Search period start: 07 December 2019 00:00
Search period end: 17 December 2019 00:00
Orbit: 594 x 642 km, 48.2° (Epoch: 06 December)

Date Brightness Start Highest point End Pass type
(mag) Time Alt. Az. Time Alt. Az. Time Alt. Az.
07 Dec ? 05:30:44 12° S 05:34:00 26° SE 05:37:45 10° E visible
07 Dec ? 07:10:50 10° WSW 07:15:19 64° NNW 07:19:44 10° NE visible
08 Dec ? 05:47:59 25° SSW 05:50:22 51° SE 05:54:43 10° ENE visible
09 Dec ? 04:27:45 14° ESE 04:27:45 14° ESE 04:28:48 10° E visible
09 Dec ? 06:04:51 33° WSW 06:06:53 86° NNW 06:11:22 10° ENE visible
10 Dec ? 04:44:21 21° E 04:44:21 21° E 04:46:10 10° ENE visible
10 Dec ? 06:21:27 28° W 06:23:31 52° NNW 06:27:54 10° NE visible
11 Dec ? 05:00:45 28° ENE 05:00:45 28° ENE 05:02:58 10° ENE visible
11 Dec ? 06:37:50 20° WNW 06:40:17 35° NNW 06:44:25 10° NE visible
12 Dec ? 05:16:59 33° NE 05:16:59 33° NE 05:19:33 10° NE visible
12 Dec ? 06:54:03 14° WNW 06:57:09 28° N 07:01:01 10° NE visible
13 Dec ? 05:33:06 34° NNE 05:33:06 34° NNE 05:36:03 10° NE visible
13 Dec ? 07:10:19 10° WNW 07:14:05 25° N 07:17:50 10° NE visible
14 Dec ? 05:49:07 31° N 05:49:07 31° N 05:52:36 10° NE visible
15 Dec ? 06:05:05 26° NNW 06:05:28 27° N 06:09:17 10° NE visible
16 Dec ? 04:43:56 11° NE 04:43:56 11° NE 04:44:13 10° NE visible
16 Dec ? 06:21:00 22° NNW 06:22:24 25° N 06:26:09 10° ENE visible
